Date String (YYYY-MM-DD hh:mm:ss) UTC,Instrument flags,Ambient pressure (hPa),Sample flow (lpm),Bypass flow (lpm),Sample temperature (°C),Ambient temperature (°C),ASC tube jacket temperature (°C),LED temperature (°C),Box temperature (°C),Sample RH (%),Span deviation,Mass concentration (μg/m³),Mass concentration (μg/m³),Mass concentration (μg/m³)
DateTimeUTC,F1_M11,P_M11,Q1_M11,Q2_M11,T1_M11,T2_M11,T3_M11,T4_M11,T5_M11,U1_M11,ZSPAN_M11,X2_M11,X0_M11,X1_M11
2023-05-17 09:00:00,,0832.1,4.99,0.00,28.5,26.8,00.0,36.9,30.1,19.3,0000.0,0003.76,0008.24,0002.79
2023-05-17 09:01:00,,0832.1,4.99,0.00,28.5,26.8,00.0,36.9,30.1,19.3,0000.0,0003.81,0008.35,0002.81
2023-05-17 09:02:00,,0832.0,5.01,0.00,28.5,26.8,00.0,36.9,30.1,19.3,0000.0,0003.80,0008.04,0002.81
2023-05-17 09:03:00,,0832.0,5.01,0.00,28.5,26.8,00.0,36.9,30.1,19.3,0000.0,0003.81,0007.62,0002.79
2023-05-17 09:04:00,,0832.0,5.01,0.00,28.5,26.8,00.0,36.9,30.1,19.2,0000.0,0003.82,0007.60,0002.80
2023-05-17 09:05:00,,0832.0,4.99,0.00,28.5,26.8,00.0,36.9,30.1,19.2,0000.0,0003.81,0007.57,0002.78
2023-05-17 09:06:00,,0832.0,4.98,0.00,28.5,26.8,00.0,36.9,30.1,19.3,0000.0,0003.82,0007.60,0002.78
2023-05-17 09:07:00,,0832.0,5.00,0.00,28.5,26.8,00.0,36.9,30.0,19.2,0000.0,0003.79,0007.37,0002.79
2023-05-17 09:08:00,,0832.1,5.01,0.00,28.5,26.7,00.0,36.9,30.0,19.1,0000.0,0003.74,0007.19,0002.79
2023-05-17 09:09:00,,0832.1,5.01,0.00,28.5,26.7,00.0,36.9,30.0,19.1,0000.0,0003.73,0007.11,0002.80
2023-05-17 09:10:00,,0832.0,4.98,0.00,28.5,26.7,00.0,36.9,30.0,19.1,0000.0,0003.75,0007.28,0002.80
2023-05-17 09:11:00,,0832.0,5.00,0.00,28.5,26.7,00.0,36.9,30.0,19.1,0000.0,0003.73,0007.23,0002.79
2023-05-17 09:12:00,,0832.1,5.00,0.00,28.5,26.7,00.0,36.9,30.0,19.3,0000.0,0003.75,0007.35,0002.77
2023-05-17 09:13:00,,0832.0,5.00,0.00,28.5,26.7,00.0,36.9,30.0,19.2,0000.0,0003.82,0007.52,0002.80
2023-05-17 09:14:00,,0832.0,5.00,0.00,28.4,26.7,00.0,36.8,30.0,19.1,0000.0,0003.80,0007.41,0002.80
2023-05-17 09:15:00,,0832.0,5.00,0.00,28.4,26.7,00.0,36.8,30.0,19.0,0000.0,0003.79,0007.45,0002.79
2023-05-17 09:16:00,,0832.0,4.99,0.00,28.4,26.7,00.0,36.8,30.0,19.0,0000.0,0003.77,0007.70,0002.81
2023-05-17 09:17:00,,0832.0,5.00,0.00,28.4,26.7,00.0,36.8,30.0,18.9,0000.0,0003.75,0007.71,0002.80
2023-05-17 09:18:00,,0831.9,5.00,0.00,28.4,26.7,00.0,36.8,30.0,18.9,0000.0,0003.75,0007.74,0002.78
2023-05-17 09:19:00,,0831.9,5.00,0.00,28.4,26.7,00.0,36.8,30.0,18.9,0000.0,0003.75,0007.78,0002.76
2023-05-17 09:20:00,,0831.9,5.00,0.00,28.4,26.7,00.0,36.8,30.0,18.8,0000.0,0003.77,0007.92,0002.77
2023-05-17 09:21:00,,0831.9,5.01,0.00,28.4,26.7,00.0,36.8,30.0,18.9,0000.0,0003.76,0008.10,0002.77
2023-05-17 09:22:00,,0831.9,5.01,0.00,28.4,26.7,00.0,36.8,29.9,18.9,0000.0,0003.78,0008.14,0002.78
2023-05-17 09:23:00,,0831.9,5.00,0.00,28.4,26.7,00.0,36.8,29.9,18.8,0000.0,0003.74,0008.49,0002.79
2023-05-17 09:24:00,,0831.9,4.98,0.00,28.4,26.6,00.0,36.8,29.9,18.8,0000.0,0003.74,0009.21,0002.77
2023-05-17 09:25:00,,0831.9,4.99,0.00,28.4,26.6,00.0,36.8,29.9,18.8,0000.0,0003.77,0009.47,0002.79
2023-05-17 09:26:00,,0831.9,5.00,0.00,28.4,26.6,00.0,36.8,29.9,18.8,0000.0,0003.80,0009.57,0002.80
2023-05-17 09:27:00,,0831.9,5.00,0.00,28.4,26.6,00.0,36.8,29.9,18.8,0000.0,0003.80,0009.28,0002.80
2023-05-17 09:28:00,,0831.9,5.00,0.00,28.3,26.6,00.0,36.8,29.9,18.7,0000.0,0003.78,0009.31,0002.80
2023-05-17 09:29:00,,0831.9,5.01,0.00,28.3,26.6,00.0,36.8,29.9,18.9,0000.0,0003.81,0009.46,0002.81
2023-05-17 09:30:00,,0832.0,5.00,0.00,28.3,26.6,00.0,36.8,29.9,18.8,0000.0,0003.85,0009.59,0002.82
2023-05-17 09:31:00,,0832.0,4.99,0.00,28.3,26.6,00.0,36.7,29.9,18.7,0000.0,0003.86,0009.63,0002.81
2023-05-17 09:32:00,,0832.0,5.01,0.00,28.3,26.6,00.0,36.7,29.9,18.6,0000.0,0003.86,0009.55,0002.79
2023-05-17 09:33:00,,0831.9,5.01,0.00,28.3,26.6,00.0,36.7,29.9,18.5,0000.0,0003.87,0009.56,0002.77
2023-05-17 09:34:00,,0831.9,5.00,0.00,28.3,26.6,00.0,36.7,29.9,18.4,0000.0,0003.88,0009.15,0002.75
2023-05-17 09:35:00,,0831.9,5.00,0.00,28.3,26.6,00.0,36.7,29.9,18.2,0000.0,0003.85,0008.38,0002.76
2023-05-17 09:36:00,,0831.9,4.99,0.00,28.3,26.6,00.0,36.7,29.9,18.1,0000.0,0003.82,0008.15,0002.76
2023-05-17 09:37:00,,0831.8,5.00,0.00,28.3,26.6,00.0,36.7,29.9,18.0,0000.0,0003.73,0007.99,0002.74
2023-05-17 09:38:00,,0831.8,5.00,0.00,28.3,26.6,00.0,36.7,29.8,18.0,0000.0,0003.74,0008.09,0002.74
2023-05-17 09:39:00,,0831.8,5.01,0.00,28.3,26.6,00.0,36.7,29.9,17.8,0000.0,0003.73,0007.96,0002.75
2023-05-17 09:40:00,,0831.7,5.00,0.00,28.3,26.5,00.0,36.7,29.8,18.0,0000.0,0003.73,0007.88,0002.75
2023-05-17 09:41:00,,0832.0,5.00,0.00,28.3,26.5,00.0,36.7,29.8,18.1,0000.0,0003.71,0007.88,0002.75
2023-05-17 09:42:00,,0832.2,5.01,0.00,28.3,26.5,00.0,36.7,29.8,18.2,0000.0,0003.68,0007.77,0002.74
2023-05-17 09:43:00,,0832.1,5.01,0.00,28.3,26.5,00.0,36.7,29.8,18.2,0000.0,0003.68,0007.66,0002.75
2023-05-17 09:44:00,,0832.1,4.99,0.00,28.3,26.5,00.0,36.7,29.8,18.1,0000.0,0003.67,0007.57,0002.76
2023-05-17 09:45:00,,0832.2,4.99,0.00,28.2,26.5,00.0,36.7,29.8,18.3,0000.0,0003.61,0007.41,0002.76
2023-05-17 09:46:00,,0831.7,5.00,0.00,28.2,26.5,00.0,36.7,29.8,18.5,0000.0,0003.58,0007.36,0002.77
2023-05-17 09:47:00,,0831.7,5.01,0.00,28.2,26.5,00.0,36.7,29.8,18.4,0000.0,0003.61,0007.43,0002.76
2023-05-17 09:48:00,,0831.7,5.01,0.00,28.2,26.5,00.0,36.6,29.8,18.3,0000.0,0003.64,0007.32,0002.77
2023-05-17 09:49:00,,0831.7,5.00,0.00,28.2,26.5,00.0,36.6,29.8,18.1,0000.0,0003.62,0007.33,0002.74
2023-05-17 09:50:00,,0831.7,5.00,0.00,28.2,26.5,00.0,36.6,29.8,17.9,0000.0,0003.61,0007.36,0002.73
2023-05-17 09:51:00,,0831.7,5.00,0.00,28.2,26.5,00.0,36.6,29.8,17.8,0000.0,0003.63,0007.39,0002.72
2023-05-17 09:52:00,,0831.6,4.99,0.00,28.2,26.5,00.0,36.6,29.8,17.9,0000.0,0003.63,0007.40,0002.72
2023-05-17 09:53:00,,0831.6,5.01,0.00,28.2,26.5,00.0,36.6,29.8,17.9,0000.0,0003.63,0007.43,0002.73
2023-05-17 09:54:00,,0831.7,5.00,0.00,28.2,26.5,00.0,36.6,29.8,18.1,0000.0,0003.61,0007.32,0002.74
2023-05-17 09:55:00,,0831.6,5.01,0.00,28.2,26.5,00.0,36.6,29.8,18.3,0000.0,0003.62,0007.41,0002.74
2023-05-17 09:56:00,,0831.6,5.00,0.00,28.2,26.5,00.0,36.6,29.8,18.4,0000.0,0003.68,0007.59,0002.75
2023-05-17 09:57:00,,0831.6,5.01,0.00,28.2,26.4,00.0,36.6,29.7,18.3,0000.0,0003.70,0007.68,0002.75
2023-05-17 09:58:00,,0831.6,5.00,0.00,28.2,26.4,00.0,36.6,29.7,18.1,0000.0,0003.68,0007.67,0002.75
2023-05-17 09:59:00,,0831.6,4.99,0.00,28.2,26.4,00.0,36.6,29.7,18.0,0000.0,0003.70,0007.78,0002.76
